Weather History for Delta, CO

Change the Weather History Date:

Saturday, June 29, 2013

  Actual Average (KMTJ) Record (KMTJ)
Temperature  
Mean Temperature 86 °F 72 °F  
Max Temperature 102 °F 89 °F 99 °F (1998)
Min Temperature 71 °F 55 °F 46 °F (2005)
Degree Days  
Heating Degree Days 0 0  
Month to date heating degree days 38  
Since 1 June heating degree days 38  
Since 1 July heating degree days 6202  
Cooling Degree Days 22 7  
Month to date cooling degree days 127  
Year to date cooling degree days 144  
Since 1 June cooling degree days 127  
Growing Degree Days 36 (Base 50)    
Moisture  
Dew Point 38 °F    
Average Humidity 20    
Maximum Humidity 37    
Minimum Humidity 7    
Precipitation  
Precipitation 0.00 in 0.03 in 0.16 in (2004)
Month to date precipitation 0.74  
Year to date precipitation 5.04  
Sea Level Pressure  
Sea Level Pressure 30.15 in    
Wind  
Wind Speed 8 mph (NE)    
Max Wind Speed 21 mph    
Max Gust Speed 34 mph    
Visibility 10 miles    
Events      
T = Trace of Precipitation, MM = Missing Value Source: NWS Daily Summary

Daily Weather History Graph

Daily Weather History Graph

Search for Another Location

Airport:

Trip Planner

Search our weather history database for the weather conditions in past years. The results will help you decide how hot, cold, wet, or windy it might be!

Date:

Astronomy

Jun. 29, 2013 Rise Set
Actual Time 5:50 AM MDT 8:41 PM MDT
Civil Twilight 5:18 AM MDT 9:13 PM MDT
Nautical Twilight 4:38 AM MDT 9:53 PM MDT
Astronomical Twilight 3:52 AM MDT 10:39 PM MDT
Moon 12:16 AM MDT (6/29) 1:00 PM MDT (6/29)
Length of Visible Light 15h 54m
Length of Day
14h 51m
Waning Gibbous, 55% of the Moon is Illuminated
Jun 29
Waning Gibbous
Jun 29
Last Quarter
Jul 8
New
Jul 15
First Quarter
Jul 22
Full

Hourly Weather History & Observations

Time (MDT) Temp. Dew Point Humidity Pressure Visibility Wind Dir Wind Speed Gust Speed Precip Events Conditions
12:15 AM 81.5 °F 39.4 °F 22% 30.18 in 10.0 mi NNE 11.5 mph - N/A   Clear
12:35 AM 81.5 °F 39.7 °F 23% 30.18 in 10.0 mi NNE 9.2 mph - N/A   Clear
12:55 AM 81.7 °F 38.7 °F 22% 30.18 in 10.0 mi NE 9.2 mph - N/A   Clear
1:15 AM 81.3 °F 37.8 °F 21% 30.18 in 10.0 mi NNE 9.2 mph - N/A   Clear
1:35 AM 81.5 °F 37.0 °F 20% 30.19 in 10.0 mi ENE 10.4 mph - N/A   Clear
1:55 AM 77.4 °F 37.9 °F 24% 30.20 in 10.0 mi SSE 3.5 mph - N/A   Clear
2:15 AM 73.9 °F 39.0 °F 28% 30.21 in 10.0 mi NNE 3.5 mph - N/A   Clear
2:35 AM 74.5 °F 41.7 °F 31% 30.21 in 10.0 mi North 6.9 mph - N/A   Clear
2:55 AM 77.0 °F 39.7 °F 26% 30.21 in 10.0 mi NNE 8.1 mph - N/A   Clear
3:15 AM 77.0 °F 37.9 °F 24% 30.21 in 10.0 mi NE 6.9 mph - N/A   Clear
3:35 AM 74.5 °F 38.1 °F 27% 30.20 in 10.0 mi NE 5.8 mph - N/A   Clear
3:55 AM 72.7 °F 41.4 °F 32% 30.20 in 10.0 mi NNE 6.9 mph - N/A   Clear
4:15 AM 72.1 °F 41.5 °F 33% 30.19 in 10.0 mi NE 4.6 mph - N/A   Clear
4:35 AM 71.8 °F 38.5 °F 30% 30.20 in 10.0 mi SE 5.8 mph - N/A   Clear
4:55 AM 72.7 °F 39.4 °F 30% 30.22 in 10.0 mi ENE 6.9 mph - N/A   Clear
5:15 AM 74.1 °F 40.1 °F 29% 30.22 in 10.0 mi ENE 9.2 mph - N/A   Clear
5:35 AM 73.4 °F 41.0 °F 31% 30.22 in 10.0 mi ESE 6.9 mph - N/A   Clear
5:55 AM 71.2 °F 43.9 °F 37% 30.22 in 10.0 mi NNE 6.9 mph - N/A   Clear
6:15 AM 71.8 °F 41.0 °F 33% 30.22 in 10.0 mi SE 4.6 mph - N/A   Clear
6:35 AM 73.0 °F 40.8 °F 31% 30.22 in 10.0 mi ENE 6.9 mph - N/A   Clear
6:55 AM 74.7 °F 40.8 °F 30% 30.23 in 10.0 mi ENE 8.1 mph - N/A   Clear
7:15 AM 73.8 °F 41.2 °F 31% 30.23 in 10.0 mi ENE 4.6 mph - N/A   Clear
7:35 AM 74.3 °F 43.3 °F 33% 30.23 in 10.0 mi NNE 3.5 mph - N/A   Clear
7:55 AM 77.4 °F 42.4 °F 29% 30.23 in 10.0 mi North 3.5 mph - N/A   Clear
8:15 AM 79.0 °F 42.1 °F 27% 30.23 in 10.0 mi North 3.5 mph - N/A   Clear
8:35 AM 79.3 °F 41.7 °F 26% 30.23 in 10.0 mi NNE 3.5 mph - N/A   Clear
8:55 AM 80.8 °F 41.5 °F 25% 30.22 in 10.0 mi Calm Calm - N/A   Clear
9:15 AM 82.4 °F 41.5 °F 23% 30.22 in 10.0 mi Calm Calm - N/A   Clear
9:35 AM 83.5 °F 39.9 °F 21% 30.22 in 10.0 mi Calm Calm - N/A   Clear
9:55 AM 85.3 °F 39.7 °F 20% 30.21 in 10.0 mi ESE 3.5 mph - N/A   Clear
10:15 AM 87.4 °F 40.3 °F 19% 30.21 in 10.0 mi ENE 4.6 mph - N/A   Clear
10:35 AM 90.0 °F 39.7 °F 17% 30.21 in 10.0 mi East 6.9 mph - N/A   Clear
10:55 AM 89.4 °F 39.4 °F 17% 30.20 in 10.0 mi ESE 4.6 mph - N/A   Clear
11:15 AM 88.3 °F 46.0 °F 23% 30.19 in 10.0 mi South 6.9 mph - N/A   Clear
11:35 AM 87.8 °F 44.6 °F 22% 30.19 in 10.0 mi South 3.5 mph - N/A   Clear
11:55 AM 90.7 °F 39.6 °F 17% 30.18 in 10.0 mi ENE 4.6 mph - N/A   Clear
12:15 PM 93.6 °F 39.6 °F 15% 30.17 in 10.0 mi ENE 5.8 mph - N/A   Clear
12:35 PM 94.8 °F 37.9 °F 14% 30.16 in 10.0 mi ENE 5.8 mph - N/A   Clear
12:55 PM 95.2 °F 36.5 °F 13% 30.15 in 10.0 mi Calm Calm - N/A   Clear
1:15 PM 96.1 °F 36.1 °F 12% 30.14 in 10.0 mi ESE 3.5 mph - N/A   Clear
1:35 PM 97.3 °F 36.5 °F 12% 30.12 in 10.0 mi ESE 8.1 mph - N/A   Clear
1:55 PM 98.2 °F 36.0 °F 11% 30.11 in 10.0 mi SSE 4.6 mph - N/A   Clear
2:15 PM 98.4 °F 37.8 °F 12% 30.09 in 10.0 mi South 5.8 mph - N/A   Clear
2:35 PM 99.1 °F 37.2 °F 12% 30.08 in 10.0 mi South 6.9 mph - N/A   Clear
2:55 PM 100.8 °F 37.0 °F 11% 30.07 in 10.0 mi South 9.2 mph - N/A   Clear
3:15 PM 100.9 °F 35.6 °F 10% 30.06 in 10.0 mi SSW 5.8 mph - N/A   Clear
3:35 PM 100.8 °F 34.7 °F 10% 30.05 in 10.0 mi Calm Calm - N/A   Clear
3:55 PM 101.8 °F 36.1 °F 10% 30.04 in 10.0 mi East 13.8 mph 18.4 mph N/A   Clear
4:15 PM 100.2 °F 34.5 °F 10% 30.04 in 10.0 mi NE 9.2 mph - N/A   Clear
4:35 PM 100.0 °F 32.0 °F 9% 30.04 in 10.0 mi North 12.7 mph 18.4 mph N/A   Clear
4:55 PM 102.4 °F 27.0 °F 7% 30.03 in 10.0 mi NNW 12.7 mph 23.0 mph N/A   Clear
5:15 PM 102.2 °F 30.9 °F 8% 30.02 in 10.0 mi North 15.0 mph 19.6 mph N/A   Clear
5:35 PM 100.8 °F 31.1 °F 9% 30.03 in 10.0 mi NNW 19.6 mph 25.3 mph N/A   Clear
5:55 PM 100.0 °F 30.9 °F 9% 30.04 in 10.0 mi NNW 20.7 mph 24.2 mph N/A   Clear
6:15 PM 97.7 °F 32.0 °F 10% 30.03 in 10.0 mi NNW 13.8 mph 26.5 mph N/A   Clear
6:35 PM 96.8 °F 32.2 °F 10% 30.04 in 10.0 mi NNW 19.6 mph 26.5 mph N/A   Clear
6:55 PM 96.4 °F 30.2 °F 10% 30.03 in 10.0 mi NNW 17.3 mph 26.5 mph N/A   Clear
7:15 PM 96.1 °F 29.1 °F 9% 30.03 in 10.0 mi North 11.5 mph - N/A   Scattered Clouds
7:35 PM 95.2 °F 27.7 °F 9% 30.03 in 10.0 mi East 11.5 mph 34.5 mph N/A   Scattered Clouds
7:55 PM 94.3 °F 29.1 °F 10% 30.04 in 10.0 mi ENE 5.8 mph - N/A   Clear
8:15 PM 92.8 °F 30.7 °F 11% 30.05 in 10.0 mi North 3.5 mph - N/A   Clear
8:35 PM 92.8 °F 30.0 °F 11% 30.06 in 10.0 mi Calm Calm - N/A   Clear
8:55 PM 91.0 °F 35.8 °F 14% 30.09 in 10.0 mi ENE 13.8 mph - N/A   Clear
9:15 PM 88.9 °F 39.6 °F 18% 30.09 in 10.0 mi SE 9.2 mph - N/A   Clear
9:35 PM 86.2 °F 41.7 °F 21% 30.11 in 10.0 mi ESE 9.2 mph 16.1 mph N/A   Clear
9:55 PM 84.4 °F 42.3 °F 23% 30.12 in 10.0 mi ESE 5.8 mph - N/A   Clear
10:15 PM 83.1 °F 43.5 °F 25% 30.14 in 10.0 mi North 5.8 mph - N/A   Clear
10:35 PM 81.9 °F 44.2 °F 27% 30.14 in 10.0 mi NNE 6.9 mph - N/A   Clear
10:55 PM 81.9 °F 43.3 °F 26% 30.14 in 10.0 mi North 10.4 mph - N/A   Clear
11:15 PM 81.0 °F 43.2 °F 26% 30.14 in 10.0 mi North 11.5 mph - N/A   Clear
11:35 PM 81.1 °F 43.2 °F 26% 30.14 in 10.0 mi NNE 11.5 mph - N/A   Clear
11:55 PM 81.7 °F 42.1 °F 25% 30.14 in 10.0 mi NE 13.8 mph 17.3 mph N/A   Clear